| time (UTC) | temp C | wind direction | speed KPH | gust KPH | rain 1hr cm | rain 24hr cm | rain mn cm | humidity % | barometer mb |
| 20260505001816 | 8 | 117 | 1.6 | 8.0 | 0.00 | 0.00 | 0.00 | 68 | 1016.4 |
| 20260505001327 | 8 | 108 | 3.2 | 8.0 | 0.00 | 0.00 | 0.00 | 67 | 1016.4 |
| 20260505000849 | 8 | 128 | 3.2 | 6.4 | 0.00 | 0.00 | 0.00 | 67 | 1016.4 |
| 20260505000328 | 8 | 141 | 3.2 | 6.4 | 0.00 | 0.00 | 0.00 | 68 | 1016.4 |
| 20260504235817 | 8 | 146 | 4.8 | 9.7 | 0.00 | 0.00 | 0.00 | 67 | 1016.4 |
| 20260504235320 | 8 | 160 | 3.2 | 9.7 | 0.00 | 0.00 | 0.00 | 67 | 1016.3 |
| 20260504234821 | 8 | 146 | 1.6 | 4.8 | 0.00 | 0.00 | 0.00 | 69 | 1016.3 |
| 20260504234311 | 8 | 134 | 3.2 | 6.4 | 0.00 | 0.00 | 0.00 | 68 | 1016.3 |
| 20260504233814 | 7 | 158 | 1.6 | 8.0 | 0.00 | 0.00 | 0.00 | 72 | 1016.3 |
| 20260504233334 | 7 | 155 | 4.8 | 8.0 | 0.00 | 0.00 | 0.00 | 74 | 1016.3 |
| 20260504232821 | 7 | 239 | 0.0 | 1.6 | 0.00 | 0.00 | 0.00 | 78 | 1016.4 |
| 20260504232311 | 7 | 239 | 0.0 | 3.2 | 0.00 | 0.00 | 0.00 | 75 | 1016.5 |
| 20260504231824 | 7 | 239 | 1.6 | 4.8 | 0.00 | 0.00 | 0.00 | 76 | 1016.4 |
| 20260504231311 | 7 | 156 | 3.2 | 4.8 | 0.00 | 0.00 | 0.00 | 78 | 1016.3 |
| 20260504230834 | 7 | 239 | 0.0 | 3.2 | 0.00 | 0.00 | 0.00 | 80 | 1016.3 |
| 20260504230352 | 7 | 243 | 0.0 | 8.0 | 0.00 | 0.00 | 0.00 | 76 | 1016.2 |
| 20260504225818 | 7 | 115 | 3.2 | 8.0 | 0.00 | 0.00 | 0.00 | 72 | 1015.9 |
| 20260504225340 | 7 | 153 | 4.8 | 8.0 | 0.00 | 0.00 | 0.00 | 76 | 1015.9 |
| 20260504224821 | 7 | 127 | 1.6 | 6.4 | 0.00 | 0.00 | 0.00 | 80 | 1016.1 |
| 20260504224351 | 7 | 134 | 3.2 | 6.4 | 0.00 | 0.00 | 0.00 | 80 | 1016.2 |
| 20260504223814 | 7 | 156 | 1.6 | 3.2 | 0.00 | 0.00 | 0.00 | 83 | 1016.6 |
| 20260504223315 | 7 | 259 | 0.0 | 0.0 | 0.00 | 0.00 | 0.00 | 83 | 1016.8 |
| 20260504222842 | 7 | 312 | 0.0 | 0.0 | 0.00 | 0.00 | 0.00 | 86 | 1016.7 |
| 20260504222324 | 6 | 56 | 0.0 | 4.8 | 0.00 | 0.00 | 0.00 | 80 | 1016.9 |
| 20260504221825 | 7 | 263 | 1.6 | 6.4 | 0.00 | 0.00 | 0.00 | 77 | 1017.1 |
| 20260504221333 | 7 | 309 | 3.2 | 9.7 | 0.00 | 0.00 | 0.00 | 71 | 1017.2 |
| 20260504220824 | 8 | 271 | 3.2 | 9.7 | 0.00 | 0.00 | 0.00 | 60 | 1017.2 |
| 20260504220409 | 9 | 320 | 4.8 | 8.0 | 0.00 | 0.00 | 0.00 | 52 | 1017.1 |
| 20260504215813 | 9 | 280 | 1.6 | 8.0 | 0.00 | 0.00 | 0.00 | 52 | 1016.8 |
| 20260504215327 | 9 | 257 | 3.2 | 11.3 | 0.00 | 0.00 | 0.00 | 51 | 1015.9 |
| 20260504214825 | 10 | 51 | 6.4 | 14.5 | 0.00 | 0.00 | 0.00 | 50 | 1015.6 |
| 20260504214329 | 10 | 318 | 6.4 | 14.5 | 0.00 | 0.00 | 0.00 | 49 | 1015.5 |
| 20260504213811 | 10 | 37 | 8.0 | 12.9 | 0.00 | 0.00 | 0.00 | 47 | 1015.4 |
| 20260504213328 | 10 | 83 | 8.0 | 14.5 | 0.00 | 0.00 | 0.00 | 46 | 1015.4 |
| 20260504212815 | 10 | 107 | 8.0 | 19.3 | 0.00 | 0.00 | 0.00 | 46 | 1015.6 |
| 20260504212317 | 11 | 32 | 9.7 | 25.7 | 0.00 | 0.00 | 0.00 | 45 | 1015.8 |
| 20260504211837 | 11 | 96 | 14.5 | 25.7 | 0.00 | 0.00 | 0.00 | 42 | 1015.8 |
| 20260504211319 | 12 | 33 | 6.4 | 19.3 | 0.00 | 0.00 | 0.00 | 40 | 1015.7 |
| 20260504210821 | 13 | 86 | 8.0 | 19.3 | 0.00 | 0.00 | 0.00 | 38 | 1015.6 |
| 20260504210318 | 14 | 98 | 8.0 | 16.1 | 0.00 | 0.00 | 0.00 | 34 | 1015.4 |
| 20260504205827 | 15 | 124 | 4.8 | 6.4 | 0.00 | 0.00 | 0.00 | 28 | 1015.5 |
| 20260504205328 | 15 | 101 | 3.2 | 6.4 | 0.00 | 0.00 | 0.00 | 28 | 1015.4 |
| 20260504204831 | 15 | 19 | 3.2 | 9.7 | 0.00 | 0.00 | 0.00 | 33 | 1015.4 |
| 20260504204321 | 15 | 6 | 4.8 | 9.7 | 0.00 | 0.00 | 0.00 | 32 | 1015.4 |
| 20260504203823 | 16 | 17 | 4.8 | 9.7 | 0.00 | 0.00 | 0.00 | 30 | 1015.5 |
| 20260504203324 | 15 | 350 | 1.6 | 9.7 | 0.00 | 0.00 | 0.00 | 32 | 1015.4 |
| 20260504202811 | 15 | 344 | 4.8 | 12.9 | 0.00 | 0.00 | 0.00 | 35 | 1015.6 |
| 20260504202312 | 14 | 284 | 4.8 | 16.1 | 0.00 | 0.00 | 0.00 | 34 | 1015.8 |
| 20260504201814 | 13 | 277 | 3.2 | 9.7 | 0.00 | 0.00 | 0.00 | 34 | 1015.8 |
| 20260504201323 | 13 | 257 | 0.0 | 6.4 | 0.00 | 0.00 | 0.00 | 35 | 1015.9 |
| 20260504200823 | 13 | 228 | 0.0 | 4.8 | 0.00 | 0.00 | 0.00 | 36 | 1015.9 |
| 20260504200345 | 12 | 176 | 1.6 | 8.0 | 0.00 | 0.00 | 0.00 | 37 | 1016.1 |
| 20260504195833 | 12 | 332 | 3.2 | 12.9 | 0.00 | 0.00 | 0.00 | 37 | 1016.2 |
| 20260504195332 | 12 | 214 | 3.2 | 12.9 | 0.00 | 0.00 | 0.00 | 39 | 1016.4 |
| 20260504194854 | 12 | 323 | 4.8 | 12.9 | 0.00 | 0.00 | 0.00 | 38 | 1016.5 |
| 20260504194324 | 12 | 249 | 6.4 | 29.0 | 0.00 | 0.00 | 0.00 | 39 | 1016.6 |
| 20260504193823 | 12 | 156 | 11.3 | 29.0 | 0.00 | 0.00 | 0.00 | 38 | 1016.7 |
| 20260504193324 | 12 | 128 | 12.9 | 27.4 | 0.00 | 0.00 | 0.00 | 37 | 1016.5 |
| 20260504192813 | 12 | 307 | 4.8 | 19.3 | 0.00 | 0.00 | 0.00 | 37 | 1016.4 |
| 20260504192334 | 12 | 293 | 8.0 | 22.5 | 0.00 | 0.00 | 0.00 | 36 | 1016.5 |
| 20260504191834 | 13 | 212 | 9.7 | 22.5 | 0.00 | 0.00 | 0.00 | 35 | 1016.5 |
| 20260504191325 | 13 | 197 | 9.7 | 20.9 | 0.00 | 0.00 | 0.00 | 32 | 1016.4 |
| 20260504190825 | 13 | 275 | 11.3 | 17.7 | 0.00 | 0.00 | 0.00 | 30 | 1016.4 |
| 20260504190326 | 13 | 150 | 6.4 | 17.7 | 0.00 | 0.00 | 0.00 | 33 | 1016.2 |
| 20260504185811 | 13 | 315 | 9.7 | 16.1 | 0.00 | 0.00 | 0.00 | 32 | 1016.6 |
| 20260504185312 | 13 | 245 | 4.8 | 16.1 | 0.00 | 0.00 | 0.00 | 32 | 1016.4 |
| 20260504184814 | 13 | 294 | 8.0 | 16.1 | 0.00 | 0.00 | 0.00 | 34 | 1016.5 |
| 20260504184322 | 14 | 304 | 4.8 | 14.5 | 0.00 | 0.00 | 0.00 | 33 | 1016.5 |
| 20260504183823 | 15 | 274 | 8.0 | 14.5 | 0.00 | 0.00 | 0.00 | 32 | 1016.4 |
| 20260504183326 | 15 | 268 | 4.8 | 9.7 | 0.00 | 0.00 | 0.00 | 33 | 1016.4 |
| 20260504182835 | 14 | 243 | 4.8 | 8.0 | 0.00 | 0.00 | 0.00 | 34 | 1016.5 |
| 20260504182315 | 13 | 335 | 1.6 | 12.9 | 0.00 | 0.00 | 0.00 | 35 | 1016.5 |
| 20260504181823 | 13 | 304 | 4.8 | 12.9 | 0.00 | 0.00 | 0.00 | 35 | 1016.7 |
| 20260504181312 | 13 | 267 | 6.4 | 11.3 | 0.00 | 0.00 | 0.00 | 35 | 1016.7 |
| 20260504180834 | 13 | 274 | 4.8 | 17.7 | 0.00 | 0.00 | 0.00 | 34 | 1016.7 |
| 20260504180311 | 13 | 354 | 9.7 | 17.7 | 0.00 | 0.00 | 0.00 | 33 | 1016.9 |
| 20260504175848 | 14 | 311 | 4.8 | 12.9 | 0.00 | 0.00 | 0.00 | 34 | 1016.9 |
| 20260504175346 | 13 | 257 | 6.4 | 14.5 | 0.00 | 0.00 | 0.00 | 35 | 1016.9 |
| 20260504174826 | 13 | 250 | 4.8 | 17.7 | 0.00 | 0.00 | 0.00 | 36 | 1017.2 |
| 20260504174315 | 13 | 278 | 4.8 | 17.7 | 0.00 | 0.00 | 0.00 | 36 | 1017.3 |
| 20260504173817 | 13 | 323 | 6.4 | 16.1 | 0.00 | 0.00 | 0.00 | 37 | 1017.3 |
| 20260504173320 | 12 | 333 | 8.0 | 16.1 | 0.00 | 0.00 | 0.00 | 36 | 1017.5 |
| 20260504172828 | 12 | 302 | 6.4 | 12.9 | 0.00 | 0.00 | 0.00 | 36 | 1017.4 |
| 20260504172327 | 12 | 229 | 6.4 | 12.9 | 0.00 | 0.00 | 0.00 | 38 | 1017.4 |
| 20260504171829 | 12 | 156 | 8.0 | 14.5 | 0.00 | 0.00 | 0.00 | 37 | 1017.4 |
| 20260504171338 | 12 | 308 | 6.4 | 14.5 | 0.00 | 0.00 | 0.00 | 37 | 1017.3 |
| 20260504170818 | 12 | 56 | 8.0 | 14.5 | 0.00 | 0.00 | 0.00 | 38 | 1017.2 |
| 20260504170320 | 12 | 312 | 1.6 | 16.1 | 0.00 | 0.00 | 0.00 | 39 | 1017.4 |
| 20260504160323 | 11 | 312 | 6.4 | 12.9 | 0.00 | 0.00 | 0.00 | 41 | 1017.6 |
| 20260504150813 | 10 | 63 | 9.7 | 16.1 | 0.00 | 0.00 | 0.00 | 42 | 1017.4 |
| 20260504150316 | 10 | 329 | 4.8 | 14.5 | 0.00 | 0.00 | 0.00 | 42 | 1017.7 |
| 20260504141324 | 10 | 96 | 6.4 | 9.7 | 0.00 | 0.00 | 0.00 | 40 | 1018.0 |
| 20260504140826 | 10 | 273 | 1.6 | 11.3 | 0.00 | 0.00 | 0.00 | 39 | 1017.9 |
| 20260504140329 | 10 | 281 | 4.8 | 11.3 | 0.00 | 0.00 | 0.00 | 39 | 1017.9 |
| 20260504130317 | 10 | 243 | 3.2 | 12.9 | 0.00 | 0.00 | 0.00 | 34 | 1017.4 |
| 20260504110329 | 5 | 14 | 3.2 | 4.8 | 0.00 | 0.00 | 0.00 | 38 | 1017.2 |
| 20260504100350 | 5 | 139 | 0.0 | 0.0 | 0.00 | 0.00 | 0.00 | 41 | 1017.5 |
| 20260504081826 | 5 | 86 | 0.0 | 3.2 | 0.00 | 0.00 | 0.00 | 44 | 1018.2 |
| 20260504081315 | 5 | 87 | 0.0 | 3.2 | 0.00 | 0.00 | 0.00 | 44 | 1018.1 |
| 20260504080834 | 5 | 88 | 0.0 | 3.2 | 0.00 | 0.00 | 0.00 | 45 | 1018.2 |
| 20260504080315 | 5 | 60 | 0.0 | 0.0 | 0.00 | 0.00 | 0.00 | 43 | 1018.3 |
| 20260504070315 | 8 | 335 | 3.2 | 9.7 | 0.00 | 0.00 | 0.00 | 37 | 1018.6 |
| 20260504050314 | 6 | 43 | 0.0 | 0.0 | 0.00 | 0.00 | 0.00 | 46 | 1019.6 |
| 20260504045824 | 6 | 41 | 0.0 | 0.0 | 0.00 | 0.00 | 0.00 | 46 | 1019.6 |
| 20260504045326 | 6 | 326 | 0.0 | 0.0 | 0.00 | 0.00 | 0.00 | 45 | 1019.7 |
| 20260504044828 | 6 | 34 | 0.0 | 0.0 | 0.00 | 0.00 | 0.00 | 45 | 1019.7 |
| 20260504044338 | 6 | 52 | 0.0 | 0.0 | 0.00 | 0.00 | 0.00 | 45 | 1019.7 |
| 20260504043818 | 6 | 34 | 0.0 | 3.2 | 0.00 | 0.00 | 0.00 | 45 | 1019.8 |
| 20260504043319 | 6 | 32 | 0.0 | 4.8 | 0.00 | 0.00 | 0.00 | 45 | 1019.7 |
| 20260504042829 | 6 | 32 | 3.2 | 4.8 | 0.00 | 0.00 | 0.00 | 45 | 1019.7 |
| 20260504042330 | 6 | 347 | 0.0 | 0.0 | 0.00 | 0.00 | 0.00 | 45 | 1019.8 |
| 20260504041852 | 6 | 49 | 0.0 | 0.0 | 0.00 | 0.00 | 0.00 | 45 | 1019.8 |
| 20260504041318 | 7 | 1 | 0.0 | 0.0 | 0.00 | 0.00 | 0.00 | 44 | 1019.9 |
| 20260504040820 | 7 | 18 | 0.0 | 3.2 | 0.00 | 0.00 | 0.00 | 44 | 1019.9 |
| 20260504040320 | 7 | 316 | 1.6 | 3.2 | 0.00 | 0.00 | 0.00 | 43 | 1019.8 |
| 20260504035829 | 8 | 317 | 0.0 | 0.0 | 0.00 | 0.00 | 0.00 | 43 | 1019.9 |
| 20260504035329 | 8 | 134 | 0.0 | 0.0 | 0.00 | 0.00 | 0.00 | 42 | 1019.9 |
| 20260504034319 | 8 | 155 | 0.0 | 3.2 | 0.00 | 0.00 | 0.00 | 42 | 1020.1 |
| 20260504033819 | 8 | 319 | 0.0 | 0.0 | 0.00 | 0.00 | 0.00 | 42 | 1020.1 |
| 20260504033321 | 8 | 113 | 0.0 | 0.0 | 0.00 | 0.00 | 0.00 | 42 | 1020.2 |
| 20260504032813 | 8 | 135 | 0.0 | 0.0 | 0.00 | 0.00 | 0.00 | 42 | 1020.2 |
| 20260504032312 | 9 | 135 | 0.0 | 3.2 | 0.00 | 0.00 | 0.00 | 41 | 1020.2 |
| 20260504031834 | 9 | 117 | 0.0 | 3.2 | 0.00 | 0.00 | 0.00 | 40 | 1020.3 |
| 20260504031325 | 9 | 219 | 0.0 | 0.0 | 0.00 | 0.00 | 0.00 | 39 | 1020.2 |
| 20260504030846 | 10 | 187 | 0.0 | 3.2 | 0.00 | 0.00 | 0.00 | 39 | 1020.2 |
| 20260504030327 | 10 | 131 | 0.0 | 8.0 | 0.00 | 0.00 | 0.00 | 39 | 1020.2 |
| 20260504025817 | 10 | 241 | 1.6 | 8.0 | 0.00 | 0.00 | 0.00 | 38 | 1020.1 |
| 20260504025317 | 10 | 252 | 1.6 | 4.8 | 0.00 | 0.00 | 0.00 | 38 | 1019.9 |
| 20260504024814 | 10 | 144 | 0.0 | 4.8 | 0.00 | 0.00 | 0.00 | 38 | 1019.9 |
| 20260504024322 | 10 | 217 | 1.6 | 4.8 | 0.00 | 0.00 | 0.00 | 38 | 1019.9 |
| 20260504023823 | 10 | 246 | 1.6 | 6.4 | 0.00 | 0.00 | 0.00 | 37 | 1019.9 |
| 20260504023324 | 10 | 150 | 1.6 | 6.4 | 0.00 | 0.00 | 0.00 | 37 | 1019.9 |
| 20260504022814 | 10 | 295 | 1.6 | 4.8 | 0.00 | 0.00 | 0.00 | 37 | 1020.0 |
| 20260504022315 | 11 | 82 | 0.0 | 3.2 | 0.00 | 0.00 | 0.00 | 36 | 1020.0 |
| 20260504021815 | 11 | 82 | 0.0 | 1.6 | 0.00 | 0.00 | 0.00 | 36 | 1019.9 |
| 20260504021325 | 11 | 113 | 0.0 | 6.4 | 0.00 | 0.00 | 0.00 | 35 | 1019.9 |
| 20260504020825 | 11 | 113 | 3.2 | 6.4 | 0.00 | 0.00 | 0.00 | 35 | 1019.9 |
| 20260504020347 | 11 | 231 | 3.2 | 8.0 | 0.00 | 0.00 | 0.00 | 35 | 1019.9 |
| 20260504015814 | 11 | 161 | 3.2 | 8.0 | 0.00 | 0.00 | 0.00 | 34 | 1019.8 |
| 20260504015316 | 11 | 172 | 1.6 | 8.0 | 0.00 | 0.00 | 0.00 | 34 | 1019.8 |
| 20260504014817 | 11 | 114 | 3.2 | 8.0 | 0.00 | 0.00 | 0.00 | 34 | 1019.7 |
| 20260504014323 | 11 | 128 | 0.0 | 0.0 | 0.00 | 0.00 | 0.00 | 34 | 1019.6 |
| 20260504013824 | 12 | 138 | 0.0 | 0.0 | 0.00 | 0.00 | 0.00 | 33 | 1019.7 |
| 20260504013325 | 12 | 146 | 0.0 | 0.0 | 0.00 | 0.00 | 0.00 | 33 | 1019.6 |
| 20260504012817 | 12 | 154 | 0.0 | 8.0 | 0.00 | 0.00 | 0.00 | 33 | 1019.5 |
| 20260504012319 | 12 | 63 | 1.6 | 8.0 | 0.00 | 0.00 | 0.00 | 31 | 1019.5 |
| 20260504011821 | 12 | 113 | 1.6 | 8.0 | 0.00 | 0.00 | 0.00 | 32 | 1019.5 |
| 20260504011335 | 12 | 349 | 1.6 | 8.0 | 0.00 | 0.00 | 0.00 | 31 | 1019.5 |
| 20260504010833 | 12 | 153 | 0.0 | 4.8 | 0.00 | 0.00 | 0.00 | 31 | 1019.6 |
| 20260504010354 | 13 | 260 | 1.6 | 4.8 | 0.00 | 0.00 | 0.00 | 30 | 1019.6 |
| 20260504005843 | 13 | 336 | 1.6 | 8.0 | 0.00 | 0.00 | 0.00 | 30 | 1019.6 |
| 20260504005324 | 13 | 275 | 3.2 | 12.9 | 0.00 | 0.00 | 0.00 | 29 | 1019.7 |
| 20260504004826 | 13 | 323 | 3.2 | 12.9 | 0.00 | 0.00 | 0.00 | 30 | 1019.7 |
| 20260504004317 | 14 | 316 | 4.8 | 19.3 | 0.00 | 0.00 | 0.00 | 29 | 1019.7 |
| 20260504003817 | 14 | 264 | 8.0 | 19.3 | 0.00 | 0.00 | 0.00 | 29 | 1019.9 |
| 20260504003341 | 15 | 291 | 6.4 | 12.9 | 0.00 | 0.00 | 0.00 | 29 | 1019.8 |
| 20260504002823 | 14 | 342 | 3.2 | 17.7 | 0.00 | 0.00 | 0.00 | 29 | 1019.9 |
| 20260504002324 | 15 | 317 | 6.4 | 16.1 | 0.00 | 0.00 | 0.00 | 28 | 1020.0 |